When you browse on this site, cookies collect data to enhance your experience and personalize the content and advertising you see.
Visit our Privacy Policy to learn more. By continuing to use the site, you agree to this use of cookies and data.
  • In Hungary
  • List of Countries
  • For 7 days
  • Water Temperature
  • Satellite Maps
  • Weather Map
  • News
  • Weather Widgets
  • user-avatar
    Login

    Hourly Weather Laizhou

    Today, 24 February, Sunday

    Time Temperature Precipitation Wind Pressure Humidity
    00:00 +3°C° 0 mm 0 mps 765 mmHg 48%
    01:00 +4°C° 0 mm 1 mps 764 mmHg 48%
    02:00 +4°C° 0 mm 1 mps 764 mmHg 48%
    03:00 +3°C° 0 mm 1 mps 764 mmHg 48%
    04:00 +3°C° 0 mm 1 mps 764 mmHg 48%
    05:00 +3°C° 0 mm 1 mps 764 mmHg 48%
    06:00 +3°C° 0 mm 1 mps 764 mmHg 45%
    07:00 +4°C° 0 mm 1 mps 764 mmHg 43%
    08:00 +4°C° 0 mm 2 mps 764 mmHg 37%
    09:00 +7°C° 0 mm 1 mps 764 mmHg 32%
    10:00 +9°C° 0 mm 1 mps 764 mmHg 27%
    11:00 +11°C° 0 mm 1 mps 764 mmHg 22%
    12:00 +12°C° 0 mm 1 mps 764 mmHg 21%
    13:00 +13°C° 0 mm 1 mps 763 mmHg 19%
    14:00 +14°C° 0 mm 1 mps 763 mmHg 17%
    15:00 +13°C° 0 mm 2 mps 762 mmHg 20%
    16:00 +12°C° 0 mm 2 mps 762 mmHg 22%
    17:00 +10°C° 0 mm 2 mps 762 mmHg 25%
    18:00 +9°C° 0 mm 2 mps 762 mmHg 28%
    19:00 +8°C° 0 mm 3 mps 763 mmHg 31%
    20:00 +7°C° 0 mm 3 mps 763 mmHg 34%
    21:00 +5°C° 0 mm 3 mps 763 mmHg 37%
    22:00 +5°C° 0 mm 3 mps 764 mmHg 39%
    23:00 +5°C° 0 mm 2 mps 764 mmHg 41%

    Tomorrow, 25 February, Monday

    Time Temperature Precipitation Wind Pressure Humidity
    00:00 +4°C° 0 mm 3 mps 764 mmHg 42%
    01:00 +3°C° 0 mm 3 mps 764 mmHg 43%
    02:00 +3°C° 0 mm 3 mps 764 mmHg 44%
    03:00 +2°C° 0 mm 3 mps 764 mmHg 45%
    04:00 +2°C° 0 mm 3 mps 764 mmHg 47%
    05:00 +2°C° 0 mm 3 mps 764 mmHg 49%
    06:00 +2°C° 0 mm 3 mps 765 mmHg 47%
    07:00 +2°C° 0 mm 3 mps 765 mmHg 45%
    08:00 +3°C° 0 mm 4 mps 766 mmHg 43%
    09:00 +5°C° 0 mm 4 mps 766 mmHg 38%
    10:00 +6°C° 0 mm 4 mps 766 mmHg 33%
    11:00 +8°C° 0 mm 4 mps 766 mmHg 28%
    12:00 +8°C° 0 mm 4 mps 766 mmHg 27%
    13:00 +10°C° 0 mm 4 mps 766 mmHg 26%
    14:00 +10°C° 0 mm 4 mps 765 mmHg 26%
    15:00 +10°C° 0 mm 4 mps 765 mmHg 28%
    16:00 +8°C° 0 mm 4 mps 765 mmHg 30%
    17:00 +7°C° 0 mm 4 mps 765 mmHg 32%
    18:00 +6°C° 0 mm 4 mps 765 mmHg 34%
    19:00 +5°C° 0 mm 3 mps 766 mmHg 36%
    20:00 +4°C° 0 mm 3 mps 766 mmHg 38%
    21:00 +3°C° 0 mm 3 mps 766 mmHg 37%
    22:00 +4°C° 0 mm 2 mps 766 mmHg 37%
    23:00 +4°C° 0 mm 2 mps 767 mmHg 37%

    Day after tomorrow, 26 February, Tuesday

    Time Temperature Precipitation Wind Pressure Humidity
    00:00 +3°C° 0 mm 2 mps 767 mmHg 37%
    01:00 +3°C° 0 mm 2 mps 767 mmHg 36%
    02:00 +4°C° 0 mm 1 mps 767 mmHg 36%
    03:00 +4°C° 0 mm 1 mps 767 mmHg 36%
    04:00 +3°C° 0 mm 1 mps 766 mmHg 35%
    05:00 +3°C° 0 mm 1 mps 766 mmHg 35%
    06:00 +3°C° 0 mm 2 mps 766 mmHg 34%
    07:00 +3°C° 0 mm 2 mps 767 mmHg 32%
    08:00 +4°C° 0 mm 2 mps 767 mmHg 31%
    09:00 +6°C° 0 mm 2 mps 767 mmHg 27%
    10:00 +7°C° 0 mm 2 mps 767 mmHg 24%
    11:00 +9°C° 0 mm 2 mps 767 mmHg 21%
    12:00 +9°C° 0 mm 2 mps 767 mmHg 21%
    13:00 +11°C° 0 mm 1 mps 766 mmHg 20%
    14:00 +12°C° 0 mm 1 mps 766 mmHg 20%
    15:00 +12°C° 0 mm 1 mps 765 mmHg 22%
    16:00 +10°C° 0 mm 2 mps 765 mmHg 24%
    17:00 +10°C° 0 mm 2 mps 765 mmHg 27%
    18:00 +9°C° 0 mm 2 mps 765 mmHg 30%
    19:00 +8°C° 0 mm 2 mps 766 mmHg 33%
    20:00 +6°C° 0 mm 2 mps 766 mmHg 36%
    21:00 +6°C° 0 mm 2 mps 766 mmHg 37%
    22:00 +6°C° 0 mm 2 mps 766 mmHg 38%
    23:00 +5°C° 0 mm 2 mps 766 mmHg 40%

    27 February, Wednesday

    Time Temperature Precipitation Wind Pressure Humidity
    00:00 +5°C° 0 mm 2 mps 766 mmHg 41%
    01:00 +5°C° 0 mm 2 mps 765 mmHg 43%
    02:00 +5°C° 0 mm 2 mps 765 mmHg 45%
    03:00 +4°C° 0 mm 2 mps 764 mmHg 46%
    04:00 +4°C° 0 mm 2 mps 764 mmHg 48%
    05:00 +4°C° 0 mm 2 mps 763 mmHg 50%
    06:00 +4°C° 0 mm 2 mps 764 mmHg 50%
    07:00 +5°C° 0 mm 2 mps 764 mmHg 50%
    08:00 +5°C° 0 mm 2 mps 765 mmHg 50%
    09:00 +7°C° 0 mm 2 mps 765 mmHg 44%
    10:00 +8°C° 0 mm 2 mps 764 mmHg 38%
    11:00 +9°C° 0 mm 2 mps 764 mmHg 33%
    12:00 +10°C° 0 mm 2 mps 764 mmHg 31%
    13:00 +12°C° 0 mm 2 mps 763 mmHg 30%
    14:00 +13°C° 0 mm 2 mps 762 mmHg 28%
    15:00 +13°C° 0 mm 2 mps 762 mmHg 31%
    16:00 +12°C° 0 mm 2 mps 762 mmHg 33%
    17:00 +10°C° 0 mm 2 mps 762 mmHg 36%
    18:00 +9°C° 0 mm 2 mps 762 mmHg 39%
    19:00 +8°C° 0 mm 2 mps 762 mmHg 41%
    20:00 +7°C° 0 mm 2 mps 762 mmHg 44%
    21:00 +7°C° 0 mm 2 mps 762 mmHg 44%
    22:00 +7°C° 0 mm 2 mps 762 mmHg 44%
    23:00 +6°C° 0 mm 2 mps 762 mmHg 44%

    28 February, Thursday

    Time Temperature Precipitation Wind Pressure Humidity
    00:00 +6°C° 0 mm 2 mps 762 mmHg 44%
    01:00 +5°C° 0 mm 2 mps 762 mmHg 45%
    02:00 +5°C° 0 mm 2 mps 762 mmHg 45%
    03:00 +4°C° 0 mm 2 mps 762 mmHg 45%
    04:00 +4°C° 0 mm 2 mps 761 mmHg 46%
    05:00 +4°C° 0 mm 2 mps 761 mmHg 47%
    06:00 +6°C° 0 mm 1 mps 761 mmHg 45%
    07:00 +6°C° 0 mm 1 mps 762 mmHg 44%
    08:00 +7°C° 0 mm 1 mps 762 mmHg 43%
    09:00 +9°C° 0 mm 1 mps 762 mmHg 39%
    10:00 +10°C° 0 mm 2 mps 762 mmHg 35%
    11:00 +13°C° 0 mm 2 mps 762 mmHg 31%
    12:00 +13°C° 0 mm 2 mps 762 mmHg 30%
    13:00 +14°C° 0 mm 2 mps 761 mmHg 29%
    14:00 +14°C° 0 mm 3 mps 761 mmHg 28%
    15:00 +15°C° 0 mm 2 mps 761 mmHg 30%
    16:00 +14°C° 0 mm 2 mps 761 mmHg 31%
    17:00 +14°C° 0 mm 1 mps 761 mmHg 32%
    18:00 +13°C° 0 mm 1 mps 761 mmHg 35%
    19:00 +10°C° 0 mm 2 mps 761 mmHg 37%
    20:00 +9°C° 0 mm 2 mps 762 mmHg 40%
    21:00 +9°C° 0 mm 2 mps 762 mmHg 42%
    22:00 +8°C° 0 mm 2 mps 762 mmHg 44%
    23:00 +7°C° 0 mm 3 mps 763 mmHg 47%

    1 March, Friday

    Time Temperature Precipitation Wind Pressure Humidity
    00:00 +7°C° 0 mm 3 mps 763 mmHg 48%
    01:00 +7°C° 0 mm 3 mps 763 mmHg 50%
    02:00 +7°C° 0 mm 3 mps 763 mmHg 52%
    03:00 +6°C° 0 mm 2 mps 762 mmHg 52%
    04:00 +6°C° 0 mm 2 mps 762 mmHg 53%
    05:00 +6°C° 0 mm 2 mps 762 mmHg 53%
    06:00 +6°C° 0 mm 2 mps 762 mmHg 52%
    07:00 +7°C° 0 mm 2 mps 763 mmHg 50%
    08:00 +7°C° 0 mm 2 mps 763 mmHg 48%
    09:00 +9°C° 0 mm 2 mps 763 mmHg 45%
    10:00 +11°C° 0 mm 1 mps 763 mmHg 41%
    11:00 +13°C° 0 mm 1 mps 763 mmHg 37%
    12:00 +13°C° 0 mm 2 mps 762 mmHg 36%
    13:00 +14°C° 0 mm 2 mps 762 mmHg 35%
    14:00 +14°C° 0 mm 2 mps 762 mmHg 34%
    15:00 +13°C° 0 mm 2 mps 762 mmHg 39%
    16:00 +12°C° 0 mm 2 mps 762 mmHg 43%
    17:00 +10°C° 0 mm 2 mps 762 mmHg 47%
    18:00 +9°C° 0.1 mm 2 mps 762 mmHg 52%
    19:00 +9°C° 0.1 mm 2 mps 763 mmHg 57%
    20:00 +9°C° 0.1 mm 1 mps 763 mmHg 62%
    21:00 +8°C° 0.2 mm 1 mps 763 mmHg 65%
    22:00 +8°C° 0.2 mm 1 mps 763 mmHg 67%
    23:00 +7°C° 0.2 mm 2 mps 763 mmHg 70%
    Show more